Flag for Germany Weather past 2 weeks in Recklinghausen, North Rhine-Westphalia, Germany

Now
36 °F

Drizzle. Low clouds.


Feels Like: 32 °F
Forecast: 36 / 42 °F
Wind: 5 mph from South

Location: Duesseldorf

Current Time: Jan 26, 2015 at 3:39:26 AM

Latest Report: Jan 26, 2015 at 3:00 AM


Visibility: 2 mi

Pressure: 30.30 "Hg

Humidity: 97%

Dew point: 35 °F

Location of RecklinghausenLocation

Historic Weather in Recklinghausen — Graph

°F

Recklinghausen temperature yesterday

Maximum temperature yesterday: 36 °F (at 2:00 PM)
Minimum temperature yesterday: 25 °F (at 2:00 AM)
Average temperature yesterday: 32 °F

Past Weeks' High & Low Weather Summary

 TemperatureHumidityPressure
High53 °F (Jan 13, 11:00 AM)100% (Jan 17, 8:00 AM)30.44 "Hg (Jan 17, 8:00 AM)
Low25 °F (Jan 25, 2:00 AM)58% (Jan 21, 1:00 PM)29.44 "Hg (Jan 15, 3:00 PM)
Average38 °F81%29.96 "Hg
* Reported Jan 11 2:00 AM — Jan 26 2:00 AM, Recklinghausen, Weather by CustomWeather, © 2014

Note: Actual official high and low records may vary slightly from our data, if they occured in-between our weather recording intervals... More about our weather records

Advertising

Recklinghausen weather history for previous 24 hours

 ConditionsComfort  
Time TempWeatherWind HumidityBarometerVisibility
2:00 AM
Jan 26
36 °FDrizzle. Low clouds.5 mph97%30.32 "Hg2 mi
1:00 AM36 °FRain. Low clouds.5 mph97%30.33 "Hg4 mi
12:00 AM35 °FRain. Low clouds.5 mph96%30.35 "Hg4 mi
11:00 PM
Jan 25
36 °FLight rain. Low clouds.5 mph97%30.35 "Hg3 mi
9:00 PM35 °FRain. Low clouds.3 mph98%30.38 "Hg2 mi
8:00 PM35 °FRain. Low clouds.3 mph99%30.39 "Hg2 mi
7:00 PM35 °FDrizzle. Low clouds.3 mph98%30.40 "Hg1 mi
6:00 PM35 °FDrizzle. Low clouds.5 mph97%30.40 "Hg2 mi
5:00 PM35 °FRain. Low clouds.3 mph98%30.39 "Hg1 mi
4:00 PM36 °FRain. Low clouds.3 mph96%30.39 "Hg2 mi
3:00 PM35 °FDrizzle. Low clouds.3 mph94%30.39 "Hg3 mi
2:00 PM36 °FLow clouds.3 mph91%30.40 "Hg3 mi
1:00 PM36 °FFog.3 mph92%30.41 "Hg3 mi
12:00 PM35 °FFog.3 mph92%30.43 "Hg2 mi
11:00 AM35 °FFog.2 mph94%30.44 "Hg2 mi
9:00 AM31 °FFog.2 mph96%30.43 "Hg2 mi
8:00 AM31 °FFog.2 mph96%30.41 "Hg2 mi
7:00 AM29 °FFog.2 mph97%30.40 "Hg2 mi
6:00 AM27 °FFog.1 mph98%30.40 "Hg4 mi
3:00 AM26 °FFog.1 mph100%30.37 "Hg0 mi
Weather by CustomWeather, © 2014

See weather overviewHow to use our weather pages